RH
92 83 86 86 86 43 32 32 31 40 57 92 88 60 70 89 86 88 83 73 70 73 79 92 94 80 48
87 89 94 93 94 61 37 34 34 42 70 87 95 66 96 92 92 89 81 74 76 77 79 89 95 79 71
89 96 95 94 95 84 48 42 45 55 73 86 96 96 96 91 99 99 84 69 69 80 83 91 92 85 72
84 97 96 95 95 95 84 58 64 76 72 95 97 96 97 96 97 98 86 72 70 83 85 93 89 80 76
94 97 96 96 96 98 95 91 93 95 98 99 98 100 100 98 97 97 95 92 83 82 84 88 81 77 83
97 96 98 97 97 97 97 93 92 97 99 98 98 98 98 98 98 95 96 96 93 80 90 94 88 80 70
96 95 97 97 98 96 97 96 92 97 99 96 98 98 97 97 95 95 97 98 94 89 85 91 78 65 62
97 97 97 98 98 98 98 96 96 96 95 95 99 98 94 96 94 89 98 100 97 93 88 77 60 55 57
62 50 44 58 60 79 69 92 88 87 97 97 97 96 97 95 97 96 100 100 99 91 93 58 56 54 58
7 6 5 5 6 50 61 74 100 98 65 95 84 93 96 100 97 100 100 100 100 98 73 56 57 52 55
4 4 4 4 5 7 12 18 70 81 75 100 99 94 78 92 97 97 99 98 100 93 82 64 58 56 56
4 4 4 4 4 5 7 8 9 13 60 86 99 99 98 99 99 98 98 98 95 96 85 71 67 61 56
5 4 3 3 3 3 4 5 8 10 12 47 71 99 100 96 100 100 100 100 96 94 94 86 71 58 54
4 4 3 3 3 4 5 6 7 9 13 52 100 100 94 100 99 100 100 100 100 97 93 68 43 38 65
3 3 3 3 4 10 100 73 71 44 54 100 100 99 99 100 99 99 100 97 100 100 96 40 20 39 74
3 3 3 3 3 4 50 100 100 100 100 100 94 100 99 100 100 100 100 99 100 100 58 32 29 54 81
3 4 4 4 4 4 53 100 90 99 98 96 100 100 100 100 100 100 100 100 100 73 36 36 54 87 90
Wind_Speed
56 55 52 50 55 55 54 55 56 55 56 56 52 50 52 52 44 43 42 41 41 36 32 31 33 29 21
60 63 59 55 58 57 58 58 60 58 59 62 58 54 52 46 42 42 41 41 37 34 28 27 32 26 23
71 66 62 60 62 58 61 62 63 63 64 65 64 51 47 45 42 40 37 36 36 32 29 32 30 28 23
68 64 64 61 65 62 62 65 67 68 63 63 60 48 47 44 42 39 36 35 35 32 31 30 28 25 22
70 68 66 65 67 62 65 70 71 66 57 55 51 49 44 43 40 36 38 37 35 31 29 29 25 23 24
65 65 65 65 69 63 62 64 62 53 51 57 57 52 50 45 43 39 40 41 38 37 32 28 24 24 21
52 59 55 55 54 55 57 61 58 57 52 51 47 48 45 47 48 47 45 45 43 39 28 24 24 20 19
50 50 58 60 58 58 61 59 61 58 55 52 53 53 52 52 50 50 52 51 47 34 28 24 21 20 23
40 39 39 42 43 47 48 53 53 50 58 56 55 55 53 50 51 52 55 54 47 40 30 22 22 23 25
45 46 47 49 50 51 52 57 52 50 49 53 50 59 56 53 51 56 61 59 49 45 30 26 25 26 29
54 56 59 60 60 61 61 59 58 57 55 56 56 52 54 61 63 61 59 49 44 37 31 31 30 30 32
65 68 69 69 70 70 69 67 65 64 60 62 64 61 64 67 64 55 50 50 47 35 34 35 33 32 34
78 81 82 82 81 80 78 75 72 70 69 68 65 63 68 63 52 56 57 50 42 36 36 31 32 37 40
89 91 93 93 92 90 86 84 80 78 72 67 68 70 68 68 59 50 48 43 44 42 37 33 35 39 44
101 102 102 101 97 89 76 79 73 75 71 59 59 60 58 51 50 50 54 49 51 51 36 32 36 43 44
111 109 101 96 89 87 93 84 70 63 64 65 67 63 53 53 50 45 44 47 52 39 33 35 44 45 43
94 89 87 84 80 80 87 77 81 77 71 61 65 60 57 43 40 41 46 42 34 28 33 42 42 39 39
Wind_Direction
255 255 255 260 265 271 273 274 275 278 282 286 289 289 293 298 294 295 301 305 306 305 301 298 294 293 275
253 254 255 257 262 270 273 273 275 280 281 287 286 287 297 292 289 292 298 299 298 298 304 303 296 290 289
259 257 255 257 261 266 272 274 276 277 279 286 285 288 290 290 286 289 298 302 300 293 300 304 292 292 288
264 266 256 258 261 265 270 272 271 275 279 288 288 284 286 285 285 288 295 303 302 293 299 298 288 288 280
266 267 258 261 264 263 265 268 274 287 289 287 282 282 282 278 280 283 292 297 297 294 293 293 290 283 287
267 267 268 268 271 275 279 283 282 287 282 274 279 277 275 274 276 281 285 290 290 291 289 290 290 292 284
268 268 271 276 272 272 280 283 281 280 276 279 273 275 272 275 275 276 280 286 286 285 282 276 295 287 264
270 270 275 277 273 277 277 278 276 275 275 278 273 270 275 274 276 278 276 282 282 275 282 286 282 267 261
303 299 296 293 291 285 295 280 288 288 272 267 268 266 270 269 271 271 272 278 271 268 283 266 256 260 255
287 289 289 285 283 279 279 280 273 277 281 284 288 280 267 266 270 269 271 271 264 267 266 255 246 254 251
290 289 287 284 283 279 275 275 271 272 274 275 275 280 274 271 267 273 271 257 261 264 261 243 243 249 250
288 287 286 285 281 279 276 274 272 270 268 267 273 278 271 266 265 262 264 268 261 258 236 236 245 252 257
288 288 286 284 283 281 278 275 270 268 266 264 267 270 270 268 253 259 263 258 254 242 230 243 258 263 258
288 287 285 281 278 274 271 270 266 263 262 264 267 264 266 259 255 245 243 240 239 242 240 249 261 258 255
287 285 280 275 271 266 259 265 264 264 257 254 254 260 256 245 250 248 242 246 237 241 252 253 254 255 256
286 282 279 274 267 257 248 246 247 254 243 246 255 255 256 249 247 245 243 243 239 250 251 253 254 257 255
286 280 275 270 263 253 241 245 236 245 252 246 259 258 260 241 248 239 241 244 234 239 247 252 256 259 262